Starlink 35633

operational
NORAD ID: 66162 Int'l Des: 2025-240 Owner: SPXS Country: US Constellation: starlink
LEOCIRCULAR

关于 Starlink 35633

正在加载描述...

实时位置

正在加载3D地球...

即将过境

高度历史

Altitude vs Time

uPlot chart will show altitude changes over time

两行轨道根数

1 66162U 25240S 25350.30740181 .00027561 00000-0 93864-3 0 9997
2 66162 53.1601 90.0021 0001688 89.0818 271.0376 15.30219393 9223
Epoch: Dec 16, 2025 • Age: 20 hours

当前状态

高度 493.7 km
速度 7.62 km/s
星下点 -50.83°S, 163.19°W
发射日期 Oct 25, 2025
运行时间 0.1 years
类型 internet

技术详情

分类 Payload
质量 575.00 kg
干质量 530.00 kg
总质量 575.00 kg
长度 0.30 m
直径 4.10 m
跨度 29.00 m
形状 Box + pan
制造商 SPXS
平台类型 Starlink V2MO
阶段状态 In Orbit
所有者/国家 SPXS/US

大型星座

Loading constellations...